{"data":{"norad_id":67106,"intl_designator":"2025-299E","name":"STARLINK-36259","alt_names":[],"object_type":"PAYLOAD","status":"ACTIVE","operator":null,"country":"US","launch_date":"2025-12-15","launch_site_code":"AFETR","launch_vehicle":null,"mission":null,"orbit_class":"UNKNOWN","rcs_meters":null,"size_class":null,"mass_kg":null,"dimensions":null,"purposes":["comms"],"wikipedia_slug":null,"has_3d_model":false,"image_url":null,"decayed_at":null,"tle_current":{"epoch":"2026-09-20T01:01:25.150080Z","epoch_age_seconds":118043,"freshness":"FRESH","line1":"1 67106U 25299E   26263.04265220  .00009698  00000+0  36136-3 0  9990","line2":"2 67106  42.9976 151.0754 0000783 289.8504  70.2264 15.27590290 42845","mean_motion":15.2759029,"eccentricity":7.83e-5,"inclination_deg":42.9976,"raan_deg":151.0754,"arg_perigee_deg":289.8504,"mean_anomaly_deg":70.2264,"bstar":0.00036136,"rev_number":4284,"period_min":94.266113723464,"perigee_km":482.48105579205,"apogee_km":483.55551270956,"semimajor_km":6861.1552842508,"source":"CELESTRAK","updated_at":"2026-09-21T09:00:36.104252Z"}}}